808  
ASUS43 KGLD 200008  
RWRGLD  
 
GOODLAND FORECAST AREA HOURLY WEATHER ROUNDUP  
NATIONAL WEATHER SERVICE GOODLAND KS  
600 PM MDT WED SEP 19 2018  
   
..OFFICIAL OBSERVATIONS
 
 
 
CITY SKY/WX TMP DP RH WIND PRES REMARKS
 
GOODLAND KS PTCLDY 89 61 38 SE20G28 29.72F  
HILL CITY KS CLEAR 89 64 43 S13 29.73S  
IMPERIAL NEB MOCLDY 74 61 63 N14G25 29.76S  
MCCOOK NEB PTCLDY 90 62 39 SE18G28 29.69F  
AKRON CO MOCLDY 77 60 55 NE14 29.85S  
BURLINGTON CO N/A N/A N/A N/A MISG 29.75F  
LIMON CO PTSUNNY 82 53 36 E17 29.86F  

 
   
..UNOFFICIAL OBSERVATIONS
 
 
 
CITY SKY/WX TMP DP RH WIND PRES REMARKS
 
NORTON KS CLEAR 90 63 40 SE9G16 29.72  
SHARON SPRINGS N/A 87 55 33 S20G26 N/A  
KIT CARSON CO N/A 91 52 26 CALM N/A  
YUMA CO FAIR 77 36 22 N12 29.81F  

 
 
 
CLICK HERE TO GO TO PREVIOUS BULLETINS.

The Nexlab KS Page
The Nexlab CO Page
The Nexlab NE Page Main Text Page